Terminal Aerodrome Forecast
Issued by NWS

Home | Current Version | Previous Version | Text Only | Print | Product List | Glossary Off
Versions: 1 2 3 4 5 6 7 8 9 10 11 12 13 14 15 16 17 18 19 20

000
FTUS43 KOAX 242300 RRA
TAFCDR
TAF
KCDR 242346Z 2500/2524 22013G22KT P6SM VCSH SCT100 BKN250
     FM250300 21015G25KT P6SM SCT200
     FM250700 30008KT P6SM SKC=

USA.gov is the U.S. government's official web portal to all federal, state and local government web resources and services.